Dewpoint
14 17 18 18 17 13 15 14 10 12 12 11 11 12 12 14 14 16 15 16 16 16 17 15 14 13 12 12 10 9 8 9 9 10 11 10 9 10 10 11 12 11 12 13 12 12 12 12 11
18 18 18 15 16 16 16 12 12 11 11 11 13 14 14 16 15 16 16 16 15 16 16 17 14 12 10 9 10 10 9 9 9 9 9 10 10 10 11 11 11 11 10 10 12 11 10 12 11
19 17 15 13 14 16 15 13 11 12 12 11 13 14 14 15 16 15 16 15 15 15 16 16 11 9 8 8 8 7 6 6 10 10 10 10 10 11 13 12 12 14 13 11 11 12 12 12 12
17 16 16 12 14 15 14 12 10 11 13 12 13 14 15 16 15 16 15 15 14 14 15 12 10 9 7 7 7 8 9 4 3 9 10 11 14 14 11 12 13 15 11 12 11 11 12 13 12
17 14 13 11 14 14 13 13 13 13 13 13 13 14 15 16 16 16 15 14 14 14 15 13 9 8 6 6 7 8 4 -0 5 10 11 11 13 14 9 12 13 13 13 11 11 11 11 11 11
13 12 12 13 12 13 13 13 12 12 13 13 13 13 16 16 16 15 14 14 13 13 14 15 7 6 6 6 8 7 5 0 2 10 10 11 13 14 11 11 7 7 5 7 10 9 10 10 10
12 11 13 13 12 13 13 13 13 12 12 11 12 13 16 16 16 15 14 13 13 13 13 14 14 9 6 7 8 10 9 9 14 5 5 5 7 7 7 10 12 13 13 13 10 10 10 7 9
12 11 12 13 12 14 13 13 13 12 12 12 12 14 15 16 15 15 14 14 14 13 13 13 15 16 14 14 7 7 8 9 6 8 9 8 8 9 8 9 9 8 9 10 12 12 9 10 9
11 11 12 12 12 13 12 13 12 13 12 13 14 13 13 16 15 14 13 14 14 13 13 13 14 15 16 15 11 8 14 9 9 9 9 13 7 15 9 14 9 9 11 12 12 10 11 11 11
10 11 12 11 10 12 12 12 13 12 12 13 14 13 15 16 15 14 13 13 13 13 13 13 15 15 16 15 16 16 16 16 9 8 13 7 9 10 7 9 9 10 10 11 10 10 12 12 15
10 10 10 10 11 11 12 13 13 12 13 12 14 15 15 15 15 14 13 12 12 12 13 13 15 16 15 15 15 15 16 16 12 7 5 5 6 8 9 12 10 10 10 11 15 15 15 14 15
10 9 9 10 10 11 12 12 12 12 12 12 13 14 14 14 14 13 12 11 11 12 13 13 14 16 16 15 16 14 14 15 15 5 5 5 10 11 10 11 11 13 13 13 14 14 15 15 15
9 9 9 10 9 11 12 12 12 12 13 13 13 13 13 12 12 11 10 10 11 12 13 13 14 14 16 15 16 8 11 14 14 15 11 6 7 11 14 14 13 13 13 14 14 14 15 15 15
9 9 9 9 9 10 11 12 12 13 13 13 13 13 12 11 10 10 10 10 11 12 13 13 13 15 13 16 16 10 15 15 14 12 10 12 13 15 15 15 15 14 15 14 15 14 14 15 14
9 9 9 9 9 9 11 13 12 13 13 13 13 13 12 11 9 10 10 10 11 12 13 14 14 15 12 13 14 13 11 15 15 11 9 9 11 15 14 15 14 15 15 15 16 15 15 15 13
8 8 9 9 8 8 11 11 12 13 12 12 12 13 12 12 11 11 12 11 11 13 14 15 15 15 16 16 15 16 16 16 16 15 13 14 14 15 15 15 15 16 16 16 16 15 15 15 15
6 7 8 9 9 8 10 10 11 13 13 11 11 12 13 13 13 13 13 13 13 14 15 16 17 16 16 13 15 16 16 16 16 16 14 13 14 14 15 15 15 15 15 15 16 16 14 15 15
6 7 7 9 9 9 9 9 10 12 12 12 11 10 12 12 12 13 13 13 14 14 15 16 17 17 16 15 13 15 16 16 17 17 17 14 14 15 15 15 15 15 15 15 15 16 15 15 16
4 6 7 8 8 9 9 9 8 11 12 12 12 11 11 11 11 12 12 13 13 14 15 16 16 17 16 14 15 16 16 14 13 13 13 14 14 14 15 15 15 16 16 16 15 15 15 15 16
4 6 7 7 8 9 9 10 9 9 11 11 11 11 11 11 11 11 11 11 12 13 15 16 14 13 13 17 14 15 15 16 14 12 13 13 14 14 15 15 16 16 15 16 16 15 15 15 15
3 5 6 7 8 9 10 10 10 9 10 11 11 11 11 11 11 11 11 11 12 12 13 15 12 11 13 14 13 13 12 12 12 14 15 14 13 14 14 15 15 16 15 16 15 15 15 15 14
4 4 6 7 9 9 9 8 10 9 11 11 11 11 11 11 11 11 11 11 11 11 12 14 14 11 11 11 13 11 14 14 14 12 13 12 14 14 14 15 15 15 15 15 15 15 15 15 14
4 5 6 7 8 7 8 8 8 9 9 10 10 10 10 11 11 11 11 11 11 11 12 13 13 11 12 11 10 11 10 12 12 13 11 11 13 13 13 14 14 14 15 16 16 16 15 14 15
3 6 6 6 6 8 6 7 5 5 6 6 7 8 9 9 10 10 11 12 12 12 12 13 12 11 11 11 10 11 11 11 12 10 11 11 12 13 12 13 13 14 13 15 15 15 15 15 15
2 4 7 9 9 8 6 7 4 3 5 6 7 8 9 9 10 10 11 12 13 13 13 14 11 11 11 11 11 11 12 12 14 13 12 12 13 12 11 11 13 13 15 15 15 16 14 15 15
1 2 5 11 9 7 7 7 4 3 5 7 8 10 11 10 9 10 11 12 13 13 14 14 11 11 11 11 11 12 13 12 14 14 10 11 13 13 12 12 13 13 14 15 14 14 15 14 15
1 4 1 5 4 6 4 3 2 2 4 6 7 10 11 12 12 13 13 14 14 14 14 13 11 11 11 11 13 13 13 12 13 13 10 11 12 13 14 15 15 15 15 15 15 15 15 15 15
1 0 4 4 7 8 4 5 4 3 3 6 7 9 12 12 13 13 14 14 15 14 14 15 16 15 12 13 13 13 14 13 14 14 12 12 14 15 14 13 13 14 14 14 14 14 14 14 15
2 2 1 0 1 3 4 2 1 1 3 6 6 10 12 12 13 13 13 14 15 16 16 16 17 17 14 14 15 15 14 15 14 14 14 15 13 11 10 9 9 9 9 11 12 13 14 14 14
-2 0 1 4 4 2 2 1 -4 -0 4 6 7 10 12 13 13 14 15 16 17 17 17 17 14 14 14 14 13 14 14 13 13 11 8 8 8 7 7 8 8 9 10 11 14 14 14 13 13
Wind_Speed
6 9 5 1 5 2 8 5 10 11 6 5 10 1 6 9 8 4 19 16 21 21 20 19 19 18 16 16 14 13 12 12 11 11 10 9 8 8 7 8 7 7 9 12 13 11 9 10 10
10 7 1 3 5 7 5 7 10 8 9 9 7 2 0 6 8 14 21 21 22 20 19 18 19 18 17 15 13 11 11 10 10 10 10 9 7 7 7 7 7 7 8 8 9 8 7 8 10
6 2 4 3 5 7 6 5 8 7 7 11 4 3 3 5 7 22 17 24 22 21 18 19 19 18 16 13 11 9 8 8 8 8 8 7 6 7 7 7 9 7 6 7 9 8 8 9 10
1 2 3 3 8 7 10 8 8 7 6 2 2 6 7 3 17 14 25 24 22 21 19 20 19 16 13 11 9 8 8 6 7 7 7 6 5 6 6 7 8 6 8 6 7 9 8 9 9
4 4 0 6 9 8 6 5 3 1 4 4 4 5 6 6 10 21 24 23 21 21 18 20 18 15 12 10 8 7 6 6 7 8 7 5 4 4 5 6 5 6 5 5 6 7 7 6 6
6 5 0 5 9 6 5 6 4 1 4 4 4 7 6 8 19 26 23 22 20 19 17 17 17 14 11 9 8 7 7 7 7 7 6 5 5 3 4 3 4 4 4 4 5 5 5 5 5
7 4 6 4 6 8 4 7 3 4 5 4 8 5 8 14 22 23 22 20 19 18 16 15 14 14 12 9 8 7 7 7 5 6 6 5 4 3 3 4 3 4 2 2 3 3 4 6 6
4 4 3 1 2 9 6 5 1 3 7 9 4 4 10 20 23 21 20 19 18 17 15 15 13 10 11 9 9 7 7 6 5 5 4 3 2 2 2 0 2 2 3 5 5 5 6 6 8
2 5 6 3 3 10 8 7 2 1 9 3 2 5 14 27 26 22 21 19 19 17 16 15 14 11 11 10 8 8 7 6 5 4 4 3 2 5 1 7 5 4 6 6 7 8 9 9 8
6 4 7 3 2 2 6 4 8 4 6 4 6 12 24 28 28 26 24 22 20 18 17 15 14 12 10 8 8 8 7 6 7 7 8 7 4 4 5 5 5 8 9 10 11 11 11 10 11
1 4 3 4 3 2 3 6 6 7 6 3 9 19 25 27 26 25 23 22 20 18 17 15 14 14 12 10 9 8 7 8 9 9 7 7 5 6 8 10 9 10 12 12 11 11 10 10 12
3 1 2 3 3 3 4 5 3 7 2 2 12 21 25 27 25 24 22 20 20 19 18 16 14 14 13 10 9 14 14 11 8 9 10 7 10 10 12 13 10 10 10 11 11 13 14 14 14
3 0 3 2 2 1 4 4 1 6 1 9 18 22 22 23 23 21 20 18 17 17 17 17 16 16 14 14 12 12 12 11 9 10 10 11 13 11 10 12 12 12 11 11 11 13 14 15 15
0 3 2 4 2 2 5 4 7 5 8 14 19 20 19 20 22 20 20 20 18 16 16 16 16 16 15 13 13 11 10 11 14 12 11 11 12 12 11 12 12 13 11 10 11 12 16 13 14
1 3 3 6 4 1 4 7 5 10 10 13 17 19 19 18 22 22 21 20 18 17 15 15 15 15 13 13 12 10 12 11 11 13 13 15 16 15 16 17 16 13 13 13 12 12 14 16 21
4 5 3 4 5 2 6 8 6 13 12 12 16 18 19 19 21 19 18 18 17 16 16 14 13 13 14 13 13 12 11 11 11 12 11 12 15 17 20 21 19 12 14 15 13 13 12 16 18
3 7 6 3 6 2 8 4 9 14 13 11 14 18 19 20 20 19 18 17 17 16 15 15 15 14 15 14 13 12 12 12 11 12 14 15 15 20 18 20 20 18 16 19 15 16 17 16 18
10 7 3 3 3 9 9 9 7 15 15 12 12 14 19 21 21 20 20 18 17 16 16 16 15 15 15 15 15 13 13 12 11 12 15 12 16 19 16 16 18 19 17 20 19 17 19 18 16
7 6 4 2 1 6 9 9 6 14 16 14 14 14 15 18 20 20 20 19 18 17 17 16 16 16 16 18 15 11 12 15 18 19 18 17 19 21 16 20 19 17 15 17 21 21 19 19 15
6 4 4 4 1 7 7 11 8 12 17 17 16 15 15 15 17 19 22 22 20 18 17 17 16 16 18 14 16 16 13 11 13 15 17 15 11 9 12 14 13 14 16 15 16 16 17 18 14
10 7 4 7 3 10 10 13 6 11 16 18 18 18 16 16 17 18 19 20 19 18 18 17 17 17 16 16 17 17 17 16 16 13 10 11 11 10 10 11 12 13 16 16 17 17 17 16 16
15 6 5 5 7 5 3 5 6 7 11 16 20 21 21 20 19 18 19 19 18 18 16 17 17 19 18 17 17 17 15 16 13 11 12 8 10 10 9 9 12 12 13 16 15 16 17 18 19
9 4 3 7 10 8 7 6 7 3 7 11 16 19 19 19 20 20 20 18 17 17 16 14 17 18 17 17 17 16 18 14 14 13 13 15 7 8 9 10 9 10 13 15 16 16 17 19 18
1 7 7 8 8 9 7 5 2 3 3 1 3 8 15 18 18 19 19 17 16 16 16 15 19 18 18 18 17 14 13 16 13 8 7 11 14 8 9 10 10 11 13 14 15 15 16 17 18
10 12 7 5 5 3 6 8 4 5 2 3 2 1 6 12 16 16 18 17 16 18 16 17 18 19 18 17 16 14 9 15 14 13 14 9 9 11 6 7 11 15 16 15 16 16 15 14 15
15 15 9 5 4 6 4 4 4 4 0 1 6 6 5 7 10 15 15 16 14 17 18 17 15 16 16 14 15 12 10 11 11 12 7 6 6 3 10 13 12 10 13 12 11 10 9 10 10
11 12 12 10 7 8 3 2 10 5 3 8 8 9 7 7 9 13 12 13 14 16 16 16 14 14 15 12 8 9 12 11 8 4 4 5 5 5 7 8 7 7 8 8 7 7 8 9 8
13 5 8 11 8 9 2 4 7 6 10 2 8 10 12 13 13 14 13 13 13 14 14 15 14 15 11 10 11 8 10 9 5 2 1 2 3 4 4 4 3 4 4 6 6 5 6 8 8
10 13 12 8 4 7 9 2 5 6 5 2 6 11 16 16 15 15 15 15 15 15 15 14 14 13 16 18 13 10 8 6 7 4 1 3 2 1 1 2 2 3 4 4 4 3 5 5 6
15 21 18 10 10 7 7 11 11 4 3 1 8 13 15 16 15 16 17 17 15 13 14 15 16 18 16 15 13 10 9 8 6 6 6 6 5 4 3 1 1 2 2 2 4 3 3 3 5
Wind_Direction
121 141 163 285 233 196 56 56 107 113 116 82 133 22 20 24 7 55 140 142 145 146 149 149 151 148 143 140 135 136 134 136 141 142 144 140 132 127 133 138 125 114 124 141 151 149 132 127 129
144 155 151 285 289 81 78 117 83 28 108 144 127 122 117 75 56 127 142 146 143 148 146 151 153 150 144 139 137 130 128 131 134 134 133 131 125 118 116 136 141 123 128 143 157 160 161 147 137
146 183 286 298 11 54 78 129 57 91 126 156 108 68 43 54 111 141 152 146 145 149 151 165 154 152 148 144 139 133 131 137 139 141 140 134 127 115 107 112 119 121 129 134 154 154 163 164 149
335 264 236 16 51 59 103 120 85 88 106 163 176 97 88 93 136 149 147 146 148 149 154 163 156 156 152 149 143 138 129 138 147 145 146 139 128 118 115 117 121 120 115 121 143 151 149 162 154
319 247 51 78 81 110 144 123 324 16 118 163 216 96 91 137 148 151 150 149 151 150 160 156 159 160 159 159 146 145 135 131 136 143 140 140 128 115 116 128 117 117 128 132 128 139 147 162 171
262 280 243 37 79 93 142 202 71 146 103 119 145 114 94 138 151 154 153 154 155 153 158 163 163 167 166 162 154 151 141 128 130 141 138 143 135 121 122 102 119 114 106 127 141 150 157 176 186
292 303 30 80 73 97 86 168 250 73 107 92 133 84 122 144 155 154 154 158 159 160 161 164 163 168 168 168 163 160 151 146 135 142 146 146 143 138 148 156 148 147 146 184 216 199 191 177 186
300 286 77 71 46 88 131 145 77 73 67 125 146 131 157 162 160 159 158 161 163 165 167 166 163 174 171 177 175 175 167 167 163 166 162 170 162 176 183 338 252 219 217 222 234 253 241 210 207
271 268 26 75 263 104 155 127 164 335 147 93 46 132 152 160 159 163 164 167 170 172 174 172 167 177 177 179 186 182 178 185 181 181 191 200 207 247 249 245 266 271 266 263 256 250 243 243 239
268 326 25 8 351 95 169 158 161 161 166 123 88 123 150 154 164 169 172 174 179 179 180 184 178 178 183 188 186 188 200 204 210 196 221 214 219 258 268 249 286 297 280 286 269 263 258 255 265
34 10 66 53 358 250 204 164 184 155 230 166 160 147 154 161 170 176 178 179 181 183 185 192 189 185 193 194 199 193 205 214 213 225 226 233 240 251 266 258 274 282 282 276 271 278 283 256 247
251 88 13 52 6 191 194 156 188 201 46 352 159 160 160 168 174 180 182 182 182 187 192 196 200 198 200 204 214 209 200 206 227 232 238 234 256 259 252 257 263 285 285 277 279 254 254 259 256
267 139 227 176 338 197 148 176 229 207 281 149 152 161 169 175 178 181 183 184 185 192 196 198 202 213 207 213 226 222 224 228 235 249 247 249 258 264 259 259 263 269 277 275 270 260 259 260 260
348 285 264 230 265 184 188 169 218 139 145 149 159 168 172 177 178 181 186 189 191 194 200 201 204 213 218 217 226 232 224 236 229 235 247 261 259 261 265 266 273 273 275 272 266 261 252 242 256
149 243 195 194 214 117 175 196 201 144 156 158 167 172 173 176 181 187 190 195 196 202 201 204 208 212 220 224 229 234 237 234 249 253 253 263 269 270 272 262 270 271 267 270 269 272 258 259 247
259 223 322 125 229 143 223 99 151 163 169 168 173 178 180 181 185 187 194 196 201 204 208 208 212 214 221 221 230 228 235 240 247 250 260 270 280 286 283 280 276 266 265 263 268 258 252 253 261
195 2 14 133 208 238 225 341 149 175 184 176 176 182 188 188 192 195 199 204 204 209 212 218 219 220 220 236 231 237 242 252 253 256 273 276 285 306 280 285 278 270 264 261 258 267 272 261 256
346 332 49 9 165 231 244 264 162 189 197 188 182 182 192 196 200 202 203 207 213 214 221 222 226 231 232 241 248 242 243 251 261 270 271 286 277 311 315 303 281 273 269 268 268 260 266 272 271
317 320 337 78 151 259 256 267 232 194 207 203 195 193 188 198 200 203 205 209 213 219 221 226 230 227 236 247 240 245 252 261 266 274 286 290 292 285 298 307 297 269 269 265 268 271 278 279 277
306 307 55 129 249 254 280 275 219 208 207 212 205 206 201 188 189 198 206 208 214 220 222 228 239 246 245 232 244 239 240 247 275 292 296 293 288 290 304 304 281 267 269 269 276 281 285 281 282
285 313 350 349 286 246 282 252 200 208 216 210 219 213 210 205 198 199 204 210 213 221 227 233 244 252 245 230 251 251 259 266 272 273 286 291 279 289 297 298 289 272 275 276 278 281 282 282 282
291 17 278 284 290 342 317 321 163 196 206 217 219 218 216 211 213 213 212 214 214 220 225 230 240 250 249 247 240 248 239 242 243 273 287 315 263 256 272 285 286 284 282 275 278 280 274 270 273
324 331 317 300 281 280 148 265 107 164 217 228 221 226 218 216 211 215 217 216 215 218 223 225 237 251 238 251 244 252 248 250 264 276 283 280 263 245 253 271 286 301 292 284 285 280 277 274 271
321 240 236 245 255 248 66 315 183 72 6 296 138 212 217 209 211 215 215 221 219 219 223 220 236 244 250 247 244 252 265 250 277 286 308 315 223 228 250 280 281 293 290 290 287 282 278 279 273
239 256 261 247 223 57 37 287 4 11 334 263 246 88 183 194 203 207 206 207 210 205 203 205 234 243 245 244 248 258 265 253 287 307 315 298 199 206 238 337 321 285 292 285 286 289 283 280 281
220 257 274 242 310 347 147 261 46 15 338 117 152 146 154 176 186 193 196 195 196 190 192 195 218 226 232 237 247 251 228 259 264 311 329 238 226 242 284 295 303 291 276 283 287 292 284 289 283
201 235 266 298 236 253 301 297 267 99 114 178 176 165 161 150 153 163 168 168 168 172 184 201 208 211 217 223 231 228 227 250 259 284 42 199 236 282 313 321 319 307 295 286 291 284 284 294 306
265 3 216 219 268 270 292 255 254 324 9 136 170 171 142 143 144 147 151 149 151 153 165 175 184 194 189 170 170 179 207 213 209 231 214 246 271 307 318 321 336 330 315 305 297 308 304 304 305
191 231 243 312 309 303 284 283 74 307 19 357 158 152 149 146 147 147 146 146 146 146 153 158 167 173 173 179 185 197 197 177 182 196 229 111 117 128 102 77 59 54 36 25 20 22 17 355 345
249 219 232 225 222 234 299 285 292 321 337 216 162 152 152 150 151 149 144 145 147 149 150 155 169 173 171 167 166 159 152 168 173 151 130 138 142 152 153 142 87 50 37 37 69 67 36 5 9
Height
1498 1500 1502 1503 1499 1482 1496 1499 1487 1495 1498 1501 1504 1506 1505 1510 1508 1521 1525 1528 1532 1536 1538 1539 1541 1543 1544 1546 1548 1549 1550 1552 1553 1554 1555 1557 1558 1559 1559 1560 1561 1562 1562 1564 1565 1566 1567 1568 1569
1500 1501 1503 1501 1492 1505 1509 1491 1495 1497 1498 1503 1506 1508 1509 1513 1519 1521 1526 1530 1534 1538 1541 1541 1542 1544 1546 1548 1549 1551 1552 1553 1555 1556 1557 1559 1560 1560 1561 1561 1562 1563 1564 1564 1566 1567 1568 1569 1570
1502 1502 1500 1492 1491 1508 1509 1495 1496 1501 1503 1504 1507 1510 1512 1517 1521 1525 1528 1532 1536 1540 1543 1543 1544 1546 1548 1549 1551 1552 1554 1555 1556 1558 1559 1560 1561 1562 1563 1563 1564 1565 1565 1566 1567 1568 1569 1570 1572
1505 1505 1502 1491 1501 1502 1500 1498 1499 1503 1505 1506 1507 1510 1518 1522 1524 1527 1530 1534 1538 1541 1545 1542 1545 1548 1549 1551 1552 1554 1556 1557 1558 1559 1560 1561 1563 1564 1564 1565 1566 1567 1567 1568 1569 1570 1571 1571 1572
1506 1501 1491 1495 1499 1500 1500 1501 1503 1503 1503 1505 1508 1510 1519 1523 1525 1529 1532 1536 1540 1543 1545 1544 1546 1549 1551 1553 1554 1556 1557 1559 1560 1561 1562 1563 1564 1565 1566 1566 1567 1568 1568 1569 1570 1571 1572 1572 1573
1500 1497 1493 1502 1498 1497 1499 1502 1506 1504 1505 1509 1510 1513 1522 1523 1526 1530 1534 1538 1542 1545 1547 1547 1548 1551 1553 1554 1556 1558 1559 1561 1562 1563 1564 1565 1566 1567 1567 1569 1569 1570 1570 1571 1571 1572 1573 1573 1573
1500 1492 1497 1498 1499 1497 1500 1503 1505 1502 1504 1507 1510 1511 1523 1526 1529 1532 1536 1539 1543 1546 1549 1550 1551 1552 1554 1556 1558 1559 1561 1563 1564 1565 1565 1566 1567 1568 1569 1569 1571 1571 1571 1572 1573 1573 1573 1574 1574
1503 1495 1495 1498 1500 1503 1501 1503 1507 1504 1507 1510 1511 1510 1521 1525 1531 1534 1538 1541 1544 1547 1550 1553 1555 1556 1556 1558 1559 1560 1562 1563 1565 1566 1567 1567 1568 1568 1569 1570 1570 1571 1572 1572 1572 1573 1573 1574 1574
1504 1492 1495 1498 1498 1499 1501 1502 1506 1507 1508 1510 1513 1513 1516 1521 1530 1535 1538 1542 1545 1548 1551 1553 1556 1558 1558 1560 1560 1561 1563 1564 1565 1566 1567 1568 1568 1570 1569 1570 1570 1570 1571 1571 1571 1571 1572 1573 1573
1499 1494 1499 1497 1496 1497 1500 1500 1507 1507 1509 1512 1514 1515 1518 1522 1528 1532 1536 1540 1544 1547 1551 1553 1555 1558 1560 1561 1562 1563 1565 1565 1564 1565 1567 1566 1567 1568 1568 1568 1568 1569 1569 1569 1569 1569 1569 1570 1573
1497 1498 1498 1500 1500 1501 1500 1501 1505 1504 1509 1505 1512 1516 1520 1524 1529 1533 1536 1539 1542 1546 1550 1552 1554 1556 1558 1560 1561 1563 1565 1565 1564 1564 1565 1565 1566 1566 1567 1567 1568 1567 1567 1567 1569 1570 1569 1571 1571
1497 1500 1501 1502 1501 1500 1499 1500 1502 1503 1505 1507 1511 1516 1519 1524 1528 1532 1536 1539 1542 1545 1548 1550 1553 1553 1557 1559 1560 1559 1561 1564 1564 1563 1563 1564 1564 1564 1565 1565 1566 1566 1567 1566 1566 1567 1567 1568 1568
1497 1500 1502 1502 1502 1500 1501 1501 1501 1503 1506 1508 1512 1516 1520 1524 1528 1532 1536 1539 1542 1544 1546 1548 1551 1551 1553 1555 1557 1557 1559 1561 1564 1563 1563 1563 1563 1563 1564 1564 1564 1564 1564 1563 1563 1563 1563 1564 1564
1499 1500 1500 1501 1501 1500 1499 1501 1502 1505 1507 1509 1512 1516 1520 1523 1527 1532 1535 1537 1540 1543 1545 1547 1548 1549 1551 1553 1555 1556 1558 1560 1560 1560 1560 1560 1562 1562 1562 1563 1562 1562 1561 1560 1560 1559 1558 1559 1561
1498 1497 1498 1498 1499 1498 1499 1501 1498 1504 1507 1509 1512 1515 1519 1522 1526 1529 1533 1536 1539 1541 1543 1545 1547 1549 1549 1551 1553 1554 1555 1557 1557 1557 1558 1558 1559 1559 1559 1559 1558 1560 1559 1556 1555 1555 1555 1555 1555
1494 1493 1498 1496 1497 1499 1500 1496 1498 1503 1506 1507 1510 1514 1517 1521 1525 1529 1532 1535 1538 1541 1542 1544 1547 1549 1550 1550 1551 1553 1555 1555 1556 1556 1555 1555 1555 1555 1554 1554 1554 1555 1555 1553 1553 1552 1552 1552 1551
1488 1497 1496 1496 1496 1496 1497 1493 1495 1502 1504 1504 1508 1512 1516 1520 1524 1527 1530 1533 1536 1538 1541 1543 1544 1546 1548 1548 1550 1551 1552 1553 1554 1554 1552 1552 1553 1552 1549 1549 1550 1550 1550 1549 1549 1549 1547 1546 1545
1500 1495 1492 1496 1493 1494 1492 1492 1492 1499 1502 1503 1505 1508 1513 1517 1521 1524 1527 1530 1533 1536 1538 1540 1541 1543 1545 1546 1547 1549 1550 1551 1552 1551 1550 1548 1546 1542 1546 1544 1543 1545 1545 1544 1543 1544 1543 1542 1542
1491 1491 1492 1490 1491 1493 1488 1488 1486 1494 1498 1499 1503 1505 1507 1512 1516 1520 1524 1526 1530 1532 1535 1536 1538 1540 1540 1541 1543 1547 1546 1545 1545 1544 1543 1544 1543 1542 1540 1539 1539 1540 1540 1541 1540 1540 1539 1539 1540
1488 1490 1489 1488 1490 1492 1484 1485 1481 1486 1491 1495 1498 1501 1504 1508 1512 1516 1519 1522 1526 1529 1532 1533 1534 1535 1536 1539 1538 1540 1541 1541 1540 1539 1538 1537 1537 1537 1536 1535 1536 1537 1537 1537 1537 1536 1536 1536 1536
1481 1487 1489 1494 1488 1485 1487 1478 1479 1481 1486 1491 1494 1497 1500 1503 1507 1512 1516 1519 1523 1526 1528 1529 1530 1531 1532 1534 1533 1534 1535 1534 1533 1533 1533 1532 1532 1533 1533 1532 1533 1533 1533 1534 1533 1532 1532 1532 1532
1489 1483 1486 1491 1492 1492 1483 1491 1474 1474 1481 1484 1487 1492 1495 1499 1503 1506 1510 1514 1518 1522 1525 1526 1526 1527 1527 1528 1528 1528 1528 1527 1527 1527 1529 1529 1528 1528 1529 1529 1530 1530 1530 1530 1530 1529 1529 1528 1528
1488 1484 1486 1487 1487 1482 1481 1485 1472 1474 1477 1476 1479 1484 1488 1493 1498 1502 1505 1509 1514 1518 1520 1522 1521 1522 1523 1524 1524 1524 1524 1528 1526 1526 1524 1523 1526 1525 1525 1526 1526 1527 1527 1526 1525 1525 1524 1524 1524
1487 1486 1485 1482 1480 1491 1483 1487 1466 1467 1471 1469 1471 1476 1481 1487 1493 1496 1501 1505 1509 1512 1516 1518 1516 1517 1518 1519 1520 1522 1523 1524 1523 1522 1520 1518 1520 1523 1522 1522 1523 1524 1525 1524 1523 1523 1522 1521 1520
1486 1485 1499 1505 1498 1494 1478 1485 1469 1461 1464 1467 1471 1476 1479 1483 1488 1492 1496 1500 1503 1507 1509 1512 1512 1513 1514 1516 1518 1520 1522 1523 1521 1520 1517 1515 1518 1518 1519 1519 1519 1519 1521 1521 1521 1520 1520 1518 1518
1481 1481 1490 1523 1510 1490 1476 1487 1465 1459 1467 1470 1472 1475 1478 1480 1484 1488 1492 1496 1499 1502 1504 1506 1508 1509 1511 1513 1515 1518 1521 1522 1521 1520 1517 1517 1519 1519 1518 1517 1517 1516 1517 1518 1517 1518 1518 1516 1516
1479 1492 1470 1480 1473 1491 1472 1467 1456 1456 1458 1465 1469 1474 1477 1480 1483 1486 1489 1492 1495 1498 1501 1503 1504 1506 1508 1511 1514 1517 1519 1519 1518 1518 1517 1518 1518 1518 1517 1517 1517 1517 1517 1517 1516 1515 1515 1515 1515
1476 1471 1486 1479 1506 1507 1477 1480 1474 1461 1459 1462 1465 1470 1476 1480 1483 1485 1489 1492 1495 1497 1499 1502 1503 1505 1508 1512 1514 1515 1516 1517 1517 1518 1518 1519 1519 1520 1519 1518 1518 1518 1518 1517 1516 1515 1514 1514 1514
1478 1481 1476 1469 1476 1493 1494 1472 1448 1455 1456 1461 1462 1468 1475 1479 1483 1486 1489 1492 1494 1497 1498 1500 1503 1505 1508 1511 1513 1514 1515 1516 1518 1518 1519 1520 1520 1521 1521 1520 1520 1519 1518 1517 1517 1516 1516 1515 1513
1459 1465 1464 1481 1485 1476 1484 1480 1445 1449 1456 1461 1462 1468 1474 1478 1482 1486 1488 1491 1493 1495 1496 1500 1502 1505 1508 1510 1512 1513 1515 1517 1518 1519 1519 1521 1520 1521 1522 1522 1521 1520 1519 1519 1518 1518 1517 1515 1515